Tracking 22124 objects as of 23-Jan-2021
HD Live streaming from Space Station
objects crossing your sky now

SL-14 DEB

Track SL-14 DEB now!
10-day predictions


NORAD ID: 25834
Int'l Code: 1978-100AW
Perigee: 676.3 km
Apogee: 781.1 km
Inclination: 82.2 °
Period: 99.2 minutes
Semi major axis: 7099 km
RCS: 0.0382 m2 (small)
Launch date: October 26, 1978
Source: Commonwealth of Independent States (former USSR) (CIS)
Launch site: PLESETSK MISSILE AND SPACE COMPLEX (PKMTR)

Note: This is SATELLITE DEBRIS
aabbcc
Your satellite tracking list
Your tracking list is empty




NASA's NSSDC Master Catalog

Two Line Element Set (TLE):
1 25834U 78100AW  21023.14189661  .00044255  00000-0  10684-1 0  9992
2 25834  82.1635 283.1409 0073805 359.0525   1.0518 14.51248063 70767
Source of the keplerian elements: AFSPC